Flag for U.S.A. Weather past 2 weeks in Dover, Delaware, U.S.A.

Now
77 °F

Sunny.


Feels Like: 79 °F
Forecast: 67 / 83 °F
Wind: 10 mph from East

Location: Dover Air Force Base

Current Time: Jul 5, 2015 at 6:03:05 PM

Latest Report: Jul 5, 2015 at 4:58 PM


Visibility: 10 mi

Pressure: 30.12 "Hg

Humidity: 73%

Dew point: 68 °F

Location of DoverLocation

Historic Weather in Dover — Graph

°F

Dover temperature yesterday

Maximum temperature yesterday: 78 °F (at 3:58 PM)
Minimum temperature yesterday: 69 °F (at 10:58 PM)
Average temperature yesterday: 74 °F

Past Weeks' High & Low Weather Summary

 TemperatureHumidityPressure
High94 °F (Jun 23, 3:58 PM)100% (Jun 20, 7:58 PM)30.16 "Hg (Jun 20, 7:58 PM)
Low61 °F (Jun 29, 5:58 AM)49% (Jun 22, 3:58 PM)29.62 "Hg (Jun 28, 2:59 AM)
Average74 °F82%29.91 "Hg
* Reported Jun 20 4:58 PM — Jul 5 4:58 PM, Dover, Weather by CustomWeather, © 2015

Note: Actual official high and low records may vary slightly from our data, if they occured in-between our weather recording intervals... More about our weather records

Advertising

Dover weather history for previous 24 hours

 ConditionsComfort  
Time TempWeatherWind HumidityBarometerVisibility
4:58 PM
Sun, Jul 5
77 °FSunny.10 mph73%30.12 "Hg10 mi
3:58 PM79 °FSunny.10 mph71%30.12 "Hg10 mi
2:58 PM79 °FPassing clouds.8 mph73%30.13 "Hg10 mi
1:58 PM78 °FSunny.7 mph73%30.14 "Hg10 mi
12:58 PM79 °FPassing clouds.10 mph71%30.15 "Hg10 mi
11:58 AM78 °FScattered clouds.7 mph72%30.16 "Hg10 mi
10:58 AM76 °FPassing clouds.6 mph77%30.15 "Hg10 mi
9:58 AM75 °FPartly sunny.5 mph81%30.14 "Hg10 mi
8:58 AM74 °FSunny.5 mph82%30.13 "Hg10 mi
7:58 AM72 °FSunny.5 mph87%30.12 "Hg10 mi
6:58 AM68 °FScattered clouds.3 mph100%30.10 "Hg10 mi
5:58 AM64 °FPassing clouds.7 mph100%30.07 "Hg9 mi
4:58 AM66 °FClear.2 mph100%30.05 "Hg10 mi
3:58 AM66 °FOvercast.3 mph100%30.05 "Hg10 mi
2:58 AM66 °FPassing clouds.3 mph100%30.04 "Hg10 mi
1:58 AM66 °FClear.3 mph99%30.03 "Hg10 mi
12:58 AM69 °FPassing clouds.No wind80%30.03 "Hg10 mi
11:58 PM
Sat, Jul 4
71 °FOvercast.5 mph74%30.02 "Hg10 mi
10:58 PM69 °FPassing clouds.6 mph80%29.99 "Hg10 mi
9:58 PM72 °FOvercast.7 mph78%29.99 "Hg10 mi
8:58 PM72 °FOvercast.10 mph83%29.97 "Hg10 mi
7:58 PM73 °FBroken clouds.7 mph84%29.95 "Hg10 mi
6:58 PM74 °FOvercast.7 mph83%29.94 "Hg10 mi
Weather by CustomWeather, © 2015

See weather overviewHow to use our weather pages